Simultaneous Nadir Overpasses (SNOs) Predictions

Prediction of SNOs between AQUA and NPP Satellite Orbit:

Table of predicted SNOs for the next 14.0 days since TLE Epoch: 11/4/2016
Index Date (AQUA) Time (AQUA) Lat,Lon (AQUA) SZA (AQUA ) Date (NPP) Time (NPP) Lat,Lon (NPP) SZA (NPP ) Distance(km) Time Diff (sec)
1 11/05/2016 13:15:44 -74.77, 36.66 66.89 11/05/2016 13:15:02 -74.77, 36.64 66.84 0.78 42
2 11/05/2016 14:04:44 76.04,-152.15 111.81 11/05/2016 14:05:19 76.03,-152.18 111.79 1.14 35
3 11/08/2016 05:32:07 -75.08, 153.35 66.44 11/08/2016 05:31:51 -75.08, 153.27 66.40 2.61 16
4 11/08/2016 06:21:08 76.29, -35.48 112.32 11/08/2016 06:22:09 76.28, -35.57 112.29 2.52 61
5 11/10/2016 20:59:27 74.12, 99.21 115.28 11/10/2016 20:58:20 74.11, 99.13 115.37 2.71 67
6 11/10/2016 21:48:19 -75.93, -88.38 66.56 11/10/2016 21:48:28 -75.93, -88.30 66.59 2.16 9
7 11/13/2016 13:15:34 75.17,-142.28 114.93 11/13/2016 13:14:52 75.18,-142.20 114.95 2.54 42
8 11/13/2016 14:04:39 -76.30, 28.69 66.25 11/13/2016 14:05:14 -76.31, 28.76 66.30 2.02 35
9 11/16/2016 05:32:02 75.20, -26.33 115.59 11/16/2016 05:31:47 75.19, -26.42 115.63 2.72 15




NCC Satellite Simultaneous Nadir Overpasses (SNOs) Prediction Service
